PROFILE

 METAR AND TAF INFORMATION
ADDS - METARS form results

(0846 UTC 18 May 2022)
http://aviationweather.gov/metar/data/
 
LIMJ 180820Z 20003KT CAVOK 21/16 Q1019
LIMJ 180750Z 22003KT CAVOK 20/16 Q1019
TAF LIMJ 180500Z 1806/1906 VRB05KT CAVOK 

 AIRPORT MAP

 RUNWAY INFORMATION
Runway 10 Runway length 9564 ft Runway width 148 ft
Runway elevation 9 ft Runway displaced threshold 0 ft Runway heading 105
Runway 28 Runway length 9564 ft Runway width 148 ft
Runway elevation 12 ft Runway displaced threshold 528 ft Runway heading 285

 AIRPORT FREQUENCIES
Type APP Name APP Frequency 119.6 MHZ
Type ATIS Name ATIS Frequency 122.825 MHZ
Type TWR Name TWR Frequency 118.6 MHZ

 AIRPORT NEAR NAVIGATION AIDS
Type VOR-DME Name Genova Frequency 112800 KHZ
Type NDB Name Genova Frequency 318 KHZ
Type VOR-DME Name Genova Sestri Frequency 108600 KHZ